SCP
0 0 0 0 0 0 0 0 0 0 0 0 0 0 0 0 0 0 0 0 0 0 0 1 1 1 1 1 1 1 1 1 1 1 0 0 0 0 0 0 0 0 0
0 0 0 0 0 0 0 0 0 0 0 0 0 0 0 0 0 0 0 0 0 0 0 1 1 1 1 1 1 1 1 1 1 1 1 0 0 0 0 0 0 0 0
0 0 0 0 0 0 0 0 0 0 0 0 0 0 0 0 0 0 0 0 0 0 0 0 0 0 0 1 1 1 1 1 1 1 1 0 0 0 0 0 0 0 0
0 0 0 0 0 0 0 0 0 0 0 0 0 0 0 0 0 0 0 0 0 0 0 0 0 0 0 0 1 1 1 1 1 1 1 1 0 0 0 0 0 0 0
0 0 0 0 0 0 0 0 0 0 0 0 0 0 0 0 0 0 0 0 0 0 0 0 0 0 0 0 0 0 1 1 1 1 1 1 0 0 0 0 0 0 0
0 0 0 0 0 0 0 0 0 0 0 0 0 0 0 0 0 0 0 0 0 0 0 0 0 0 0 0 0 0 0 1 1 1 1 1 0 0 0 0 0 0 0
0 0 0 0 0 0 0 0 0 0 0 0 0 0 0 0 0 0 0 0 0 0 0 0 0 0 0 0 0 0 0 0 0 1 1 1 0 0 0 0 0 0 0
0 0 0 0 0 0 0 0 0 0 0 0 0 0 0 0 0 0 0 0 0 0 0 0 0 0 0 0 0 0 0 0 0 0 0 0 0 0 0 0 0 0 0
0 0 0 0 0 0 0 0 0 0 0 0 0 0 0 0 0 0 0 0 0 0 0 0 0 0 0 0 0 0 0 0 0 0 0 0 0 0 0 0 0 0 0
0 0 0 0 0 0 0 0 0 0 0 0 0 0 0 0 0 0 0 0 0 0 0 0 0 0 0 0 0 0 0 0 0 0 0 0 0 0 0 0 0 0 0
0 0 0 0 0 0 0 0 0 0 0 0 0 0 0 0 0 0 0 0 0 0 0 0 0 0 0 0 0 0 0 0 0 0 0 0 0 0 0 0 0 0 0
0 0 0 0 0 0 0 0 0 0 0 0 0 0 0 0 0 0 0 0 0 0 0 0 0 0 0 0 0 0 0 0 0 0 0 0 0 0 0 0 0 0 0
0 0 0 0 0 0 0 0 0 0 0 0 0 0 0 0 0 0 0 0 0 0 0 0 0 0 0 0 0 0 0 0 0 0 0 0 0 0 0 0 0 0 0
0 0 0 0 0 0 0 0 0 0 0 0 0 0 0 0 0 0 0 0 0 0 0 0 0 0 0 0 0 0 0 0 0 0 0 0 0 0 0 0 0 0 0
0 0 0 0 0 0 0 0 0 0 0 0 0 0 0 0 0 0 0 0 0 0 0 0 0 0 0 0 0 0 0 0 0 0 0 0 0 0 0 0 0 0 0
0 0 0 0 0 0 0 0 0 0 0 0 0 0 0 0 0 0 0 0 0 0 0 0 0 0 0 0 0 0 0 0 0 0 0 0 0 0 0 0 0 0 0
0 0 0 0 0 0 0 0 0 0 0 0 0 0 0 0 0 0 0 0 0 0 0 0 0 0 0 0 0 0 0 0 0 0 0 0 0 0 0 0 0 0 0
0 0 0 0 0 0 0 0 0 0 0 0 0 0 0 0 0 0 0 0 0 0 0 0 0 0 0 0 0 0 0 0 0 0 0 0 0 0 0 0 0 0 0
0 0 0 0 0 0 0 0 0 0 0 0 0 0 0 0 0 0 0 0 0 0 0 0 0 0 0 0 0 0 0 0 0 0 0 0 0 0 0 0 0 0 0
0 0 0 0 0 0 0 0 0 0 0 0 0 0 0 0 0 0 0 0 0 0 0 0 0 0 0 0 0 0 0 0 0 0 0 0 0 0 0 0 0 0 0
0 0 0 0 0 0 0 0 0 0 0 0 0 0 0 0 0 0 0 0 0 0 0 0 0 0 0 0 0 0 0 0 0 0 0 0 0 0 0 0 0 0 0
0 0 0 0 0 0 0 0 0 0 0 0 0 0 0 0 0 0 0 0 0 0 0 0 0 0 0 0 0 0 0 0 0 0 0 0 0 0 0 0 0 0 0
0 0 0 0 0 0 0 0 0 0 0 0 0 0 0 0 0 0 0 0 0 0 0 0 0 0 0 0 0 0 0 0 0 0 0 0 0 0 0 0 0 0 0
0 0 0 0 0 0 0 0 0 0 0 0 0 0 0 0 0 0 0 0 0 0 0 0 0 0 0 0 0 0 0 0 0 0 0 0 0 0 0 0 0 0 0
0 0 0 0 0 0 0 0 0 0 0 0 0 0 0 0 0 0 0 0 0 0 0 0 0 0 0 0 0 0 0 0 0 0 0 0 0 0 0 0 0 0 0
-0 -0 -0 -0 0 0 0 0 0 0 0 0 0 0 0 0 0 0 0 0 0 0 0 0 0 0 0 0 0 0 0 0 0 0 0 0 0 0 0 0 0 0 0
Wind_Speed
0 0 1 2 2 2 3 4 5 5 6 7 7 8 8 9 9 10 11 11 13 13 12 13 15 13 11 10 10 11 12 12 16 10 5 5 8 9 7 8 8 9 9
0 1 1 2 3 3 4 5 5 6 6 7 7 8 8 8 8 9 11 11 12 13 13 13 15 11 13 11 10 12 12 11 13 15 7 5 8 8 8 8 7 7 8
1 1 2 2 3 4 5 5 5 6 7 7 7 8 8 8 9 9 10 11 12 13 13 13 13 12 14 11 11 11 10 10 10 11 10 5 5 4 5 4 4 4 5
1 1 2 3 4 4 5 5 6 6 7 7 8 8 9 9 9 9 9 11 11 12 12 12 13 13 14 12 11 12 10 9 9 9 8 5 4 4 4 5 4 4 5
1 1 2 3 4 4 5 6 6 6 7 8 8 9 9 8 8 8 8 10 11 12 11 11 12 12 14 12 10 10 9 9 8 7 8 6 6 5 6 5 6 4 4
1 2 3 4 4 5 6 6 7 7 7 8 8 9 10 8 11 12 11 10 11 11 12 11 10 11 11 13 14 14 13 12 11 9 8 9 9 7 6 7 6 5 4
2 3 4 4 5 6 6 7 7 8 8 9 9 9 11 12 14 13 12 11 11 12 12 11 9 8 9 9 10 11 12 14 15 12 11 11 9 8 8 9 8 7 6
2 3 4 4 6 6 6 7 8 7 8 9 10 10 11 13 14 14 13 11 11 12 11 11 11 10 9 9 8 8 9 9 11 10 10 10 9 7 9 10 9 6 2
3 4 4 5 6 7 8 8 8 8 9 9 9 10 11 13 14 15 13 8 9 11 10 10 10 11 12 11 9 8 8 8 7 9 10 9 9 10 9 6 6 6 4
4 5 5 5 6 8 9 9 7 8 9 9 10 9 11 12 14 15 14 7 9 9 8 8 9 10 12 11 9 8 9 8 4 3 4 5 6 7 10 9 9 7 5
4 5 6 6 7 8 8 8 8 8 9 10 11 10 10 11 14 15 14 8 8 8 8 7 6 9 11 11 10 8 10 7 4 4 3 2 2 3 4 4 5 6 6
5 6 7 7 7 6 8 8 8 8 9 10 10 11 8 7 9 12 14 13 11 9 9 7 7 8 9 10 8 8 8 6 3 3 3 3 2 2 2 3 3 2 2
6 7 7 8 7 7 7 9 8 7 7 8 8 10 9 7 7 11 12 13 12 9 7 9 9 9 8 6 6 7 6 4 4 4 4 3 2 3 3 4 5 6 6
6 8 7 7 8 7 6 6 7 7 7 8 8 9 9 8 7 5 5 6 7 7 6 6 7 7 6 5 4 3 3 3 4 4 3 2 2 3 3 4 5 5 5
7 7 7 7 8 8 7 7 8 8 8 10 9 9 10 11 10 11 9 7 6 6 5 4 4 4 3 2 2 2 2 2 2 3 3 4 4 4 3 3 4 4 4
7 7 6 6 7 7 8 9 11 13 15 16 17 15 12 14 17 16 15 15 14 11 6 5 5 4 4 3 3 2 2 3 3 4 4 5 5 5 4 3 4 5 5
7 8 6 6 7 7 7 8 11 10 12 14 15 16 16 17 17 16 15 14 12 9 5 5 5 4 4 3 3 3 3 3 3 4 5 5 5 5 5 5 5 5 5
7 8 7 7 7 7 7 8 8 9 11 9 9 13 14 15 15 15 13 10 7 5 4 4 5 4 4 4 3 3 2 2 3 3 4 5 5 6 6 6 5 6 6
6 6 6 6 6 7 7 8 8 9 9 9 8 8 9 11 12 12 9 5 5 5 4 4 4 4 4 3 3 2 3 3 3 3 4 5 5 6 6 5 5 7 6
6 8 7 6 6 6 7 7 7 7 8 8 8 7 6 6 6 6 4 4 4 4 4 3 3 3 3 2 2 2 2 3 3 3 3 4 4 5 6 7 6 6 5
5 6 7 6 6 6 6 7 7 7 7 7 7 8 10 6 6 6 5 4 4 4 3 3 2 2 2 2 2 3 3 3 3 3 4 4 4 4 5 5 5 5 6
5 5 5 5 6 6 6 6 6 6 7 7 6 6 9 5 4 4 4 4 3 3 3 2 2 1 2 2 2 3 3 3 3 3 4 4 4 4 5 5 5 5 6
4 5 5 5 5 6 6 6 5 6 6 6 5 5 5 4 4 4 4 4 3 3 2 2 1 1 0 0 1 2 3 3 3 4 4 4 4 4 5 6 7 7 6
4 5 5 5 5 5 5 5 5 5 5 5 5 5 4 4 4 5 4 3 3 3 2 1 1 0 1 1 1 1 1 2 3 3 5 5 5 4 5 5 5 7 6
4 4 4 4 4 5 5 5 5 5 4 4 4 4 4 4 4 4 3 3 3 2 2 2 1 1 2 2 2 1 3 3 3 3 4 4 5 5 6 6 5 6 6
4 4 4 4 4 4 4 4 4 4 4 4 4 4 4 4 3 3 3 2 2 2 2 2 2 2 2 2 2 3 3 4 4 5 4 5 5 5 6 6 7 6 6
Wind_Direction
284 290 321 311 309 305 292 285 282 282 282 277 275 272 268 264 256 249 249 248 247 249 246 246 247 244 244 242 239 240 240 242 257 262 228 207 204 212 215 216 215 217 217
4 15 349 334 334 326 312 306 303 296 292 287 285 281 278 274 268 260 258 254 252 253 251 249 251 248 246 245 243 243 243 240 249 261 253 213 212 208 211 214 215 215 216
41 25 353 335 327 315 308 308 308 304 300 296 290 284 282 278 274 269 265 261 257 256 255 253 254 250 250 248 245 246 245 244 242 250 253 231 217 197 198 206 206 213 212
47 20 342 323 315 310 310 311 309 306 303 300 293 286 283 281 276 272 271 270 266 262 259 256 255 252 252 250 249 248 246 244 241 243 247 241 217 188 178 191 206 209 214
30 350 315 312 315 315 315 313 311 307 301 298 294 291 287 283 277 276 276 275 272 270 265 260 257 255 252 250 250 250 245 245 242 239 240 240 225 193 197 187 203 199 214
342 312 311 315 316 315 313 312 310 307 304 301 295 292 289 284 284 282 279 279 275 271 270 266 261 253 251 249 248 247 244 244 243 239 238 234 232 217 200 185 185 187 215
309 306 309 311 310 307 307 307 303 302 302 299 295 292 289 287 287 284 280 277 275 271 268 266 265 259 252 254 253 251 250 244 239 239 240 239 231 213 194 195 197 200 210
299 302 306 308 303 302 300 296 296 295 295 294 293 291 288 287 288 287 286 278 275 272 269 265 263 262 254 248 252 255 254 251 242 238 241 246 239 217 201 202 196 187 159
301 303 304 302 299 298 295 293 293 293 292 288 286 287 286 287 289 289 287 281 277 276 273 268 262 262 256 246 245 250 257 259 249 232 233 235 228 210 192 173 170 164 181
295 296 297 293 291 291 289 289 288 286 286 288 285 281 278 281 286 286 285 277 275 276 275 269 260 256 256 248 241 237 247 254 245 240 231 239 231 205 193 195 187 180 170
296 298 296 292 287 284 286 285 287 288 287 285 284 282 276 275 281 282 280 272 269 275 274 273 265 255 256 254 247 243 242 246 239 231 234 228 208 194 192 192 190 186 182
304 300 296 292 288 288 287 289 287 286 288 287 286 287 280 273 273 279 278 272 269 268 270 272 268 262 259 257 254 243 236 236 224 214 217 218 202 188 161 137 120 105 116
305 297 294 293 287 284 283 286 289 284 282 286 286 287 289 285 279 279 279 277 273 268 269 268 270 272 272 268 255 242 234 218 206 204 208 217 196 163 137 115 100 94 80
297 296 296 295 293 287 279 276 278 280 281 281 283 284 287 288 284 283 280 281 277 271 271 274 274 273 272 268 262 255 237 216 204 201 191 179 149 142 145 138 131 122 101
294 294 295 291 290 291 283 273 274 268 266 274 277 278 281 283 282 282 282 280 276 269 275 279 279 274 264 259 254 238 215 195 189 183 170 163 155 147 146 138 138 133 132
293 293 291 291 290 289 292 292 278 272 277 273 272 272 274 273 283 284 282 278 276 269 270 264 263 260 257 255 244 239 219 199 190 178 174 170 163 157 149 141 139 138 138
281 286 287 287 287 290 291 293 298 297 283 280 280 281 280 281 284 286 286 283 277 267 262 255 255 254 252 244 234 237 242 216 192 181 174 166 158 154 151 149 145 140 140
278 278 279 282 283 284 285 285 287 293 300 297 292 289 290 289 289 289 287 287 280 265 252 250 252 250 243 236 231 228 220 199 184 174 167 162 158 156 155 154 154 152 149
278 279 280 281 281 282 283 283 282 282 285 291 298 299 299 298 296 293 290 279 273 271 263 254 251 247 243 234 229 220 207 197 179 166 163 159 158 156 155 153 150 149 150
277 279 281 281 283 283 282 282 283 284 285 287 291 298 309 309 304 304 297 286 279 276 272 264 257 246 234 220 217 208 193 177 166 161 157 153 155 156 155 155 156 157 158
276 281 281 280 278 279 281 281 282 283 284 286 289 296 302 299 296 301 303 301 294 287 281 274 263 252 243 223 211 191 179 174 170 161 155 153 152 151 151 150 150 148 143
271 275 276 275 278 280 280 280 280 281 283 287 296 302 306 304 300 300 300 298 297 295 294 287 275 259 240 225 202 184 176 172 168 159 152 151 151 148 145 145 145 146 145
270 276 278 277 278 282 283 281 281 282 285 289 295 301 305 304 302 302 303 308 314 318 318 306 285 285 295 256 201 183 175 176 171 162 153 149 147 147 148 150 151 150 152
267 270 275 280 282 282 284 286 286 286 288 291 294 296 300 305 308 310 313 320 326 333 339 337 333 76 77 60 64 75 117 138 140 146 149 150 148 144 143 144 146 148 147
265 267 270 274 278 281 284 287 289 291 292 292 295 299 303 307 311 314 319 326 333 346 356 1 13 50 74 72 72 88 119 121 121 126 133 135 138 141 142 140 141 141 144
263 265 267 270 274 277 279 283 287 290 291 294 296 298 300 301 304 310 317 327 336 346 355 2 21 38 48 62 85 102 114 121 121 124 128 129 133 137 138 136 138 139 143